Location: ????????
(56.1167°N, 38.6333°E)
Time: 11:20:00
(UTC+00:00)

Cosmos 2278 Rocket - Pass Details

Date: 18 November 2025
Orbit: 841 x 843 km, 71.0° (Epoch: 10 December)

Event Time Altitude Azimuth Distance (km) Brightness Sun altitude
Rises 17:41:27 0° 260° (W) 3,398 6.1 -36.7°
Reaches altitude 10° 17:44:15 10° 272° (W) 2,465 5.3 -37.0°
Enters shadow 17:48:36 28° 322° (NW) 1,553 3.9 -37.6°
